Starlink 31076

operational
NORAD ID: 58736 Int'l Des: 2024-005 Owner: SPXS Country: US Constellation: starlink
LEOCIRCULAR

Über Starlink 31076

Beschreibung wird geladen...

Live-Position

3D-Globus wird geladen...

Nächste Überflüge

Höhenverlauf

Altitude vs Time

uPlot chart will show altitude changes over time

Zweizeiliger Elementsatz

1 58736U 24005J 25304.69262439 .00000224 00000-0 31623-4 0 9992
2 58736 43.0038 202.8525 0000719 265.8284 94.2476 15.02534036101053
Epoch: 31. Okt. 2025 • Age: 21 hours

Aktueller Status

Höhe 562.1 km
Geschwindigkeit 7.59 km/s
Subsatellitenpunkt 40.42°N, 64.03°E
Startdatum 7. Jan. 2024
Alter 1.8 years
Typ internet

Technische Details

Klassifizierung Payload
Masse 730.00 kg
Trockenmasse 700.00 kg
Gesamtmasse 730.00 kg
Länge 0.30 m
Durchmesser 4.10 m
Spannweite 29.00 m
Form Box + pan
Hersteller SPXS
Bus-Typ Starlink V2M
Phasenstatus In Orbit
Besitzer/Staat SPXS/US

Große Konstellationen

Loading constellations...